This is the latest recevied weather packets stored in our database for station/object K0SNA. If no packets are shown the sender has not sent any weather packets the latest 1 day(s).
| Time | Temp. | Humidity | Pressure | Rain* | Wind** | Luminosity | Snow |
|---|---|---|---|---|---|---|---|
| 1778043992 | 3.89° C | 55% | 1014.1 hPa | 0 mm | - | 0 W/m² | - |
| 1778043385 | 4.44° C | 55% | 1013.9 hPa | 0 mm | - | 0 W/m² | - |
| 1778041571 | 4.44° C | 54% | 1014 hPa | 0 mm | - | 0 W/m² | - |
| 1778041268 | 5° C | 54% | 1014 hPa | 0 mm | - | 0 W/m² | - |
| 1778040663 | 5° C | 53% | 1013.9 hPa | 0 mm | - | 0 W/m² | - |
| 1778040361 | 5° C | 53% | 1013.8 hPa | 0 mm | - | 0 W/m² | - |
| 1778039754 | 5° C | 53% | 1013.9 hPa | 0 mm | - | 0 W/m² | - |
| 1778039450 | 5° C | 53% | 1013.8 hPa | 0 mm | - | 0 W/m² | - |
| 1778039148 | 5.56° C | 52% | 1013.9 hPa | 0 mm | - | 0 W/m² | - |
| 1778038845 | 5.56° C | 52% | 1013.7 hPa | 0 mm | - | 0 W/m² | - |
| 1778038542 | 5.56° C | 52% | 1013.5 hPa | 0 mm | - | 0 W/m² | - |
| 1778037936 | 5.56° C | 51% | 1013.3 hPa | 0 mm | - | 0 W/m² | - |
| 1778037330 | 6.11° C | 50% | 1013.3 hPa | 0 mm | - | 0 W/m² | - |
| 1778033997 | 6.67° C | 48% | 1012.6 hPa | 0 mm | - | 0 W/m² | - |
| 1778033694 | 6.67° C | 47% | 1012.5 hPa | 0 mm | - | 0 W/m² | - |
| 1778033089 | 7.22° C | 47% | 1012.4 hPa | 0 mm | - | 0 W/m² | - |
| 1778032786 | 7.22° C | 46% | 1012.4 hPa | 0 mm | - | 0 W/m² | - |
| 1778032180 | 7.22° C | 46% | 1012.2 hPa | 0 mm | - | 0 W/m² | - |
| 1778031877 | 7.22° C | 46% | 1012.1 hPa | 0 mm | - | 0 W/m² | - |
| 1778031272 | 7.78° C | 45% | 1012.1 hPa | 0 mm | - | 1 W/m² | - |
| 1778030968 | 7.78° C | 45% | 1011.9 hPa | 0 mm | - | 1 W/m² | - |
| 1778030059 | 7.78° C | 44% | 1011.9 hPa | 0 mm | - | 5 W/m² | - |
| 1778028848 | 8.89° C | 41% | 1011.5 hPa | 0 mm | - | 14 W/m² | - |
| 1778028543 | 8.89° C | 41% | 1011.6 hPa | 0 mm | - | 18 W/m² | - |
| 1778027937 | 8.89° C | 41% | 1011.4 hPa | 0 mm | - | 22 W/m² | - |
* Rain latest hour (hover to see other rain measurements)
** Current wind speed in m/s (hover to see current wind gust speed)